Location: Meanaryar
(48.4161°N, 4.7315°W)
Time: 17:22:08
(UTC+00:00)

Lacrosse 5 rocket - Pass Details

Date: 18 September 2020
Orbit: 460 x 636 km, 57.0° (Epoch: 29 October)

Event Time Altitude Azimuth Distance (km) Brightness Sun altitude
Rises 19:44:16 0° 268° (W) 2,748 6.3 -13.8°
Reaches altitude 10° 19:46:37 10° 278° (W) 1,884 5.4 -14.2°
Maximum altitude 19:50:32 34° 343° (NNW) 999 3.0 -14.8°
Drops below altitude 10° 19:54:40 10° 49° (NE) 1,977 3.9 -15.5°
Enters shadow 19:55:09 - 52° (NE) 2,155 4.0 -15.5°
